Flag for Germany Weather past 2 weeks in Meiningen, Thuringia, Germany

Now
36 °F

Light rain. Low clouds.


Feels Like: 31 °F
Forecast: 27 / 38 °F
Wind: 6 mph from North

Location: Meiningen

Current Time: Feb 27, 2015 at 6:38:18 PM

Latest Report: Feb 27, 2015 at 6:00 PM


Visibility: 7 mi

Pressure: 30.00 "Hg

Humidity: 92%

Dew point: 34 °F

Location of MeiningenLocation

Historic Weather in Meiningen — Graph

°F

Meiningen temperature yesterday

Maximum temperature yesterday: 43 °F (at 3:00 PM)
Minimum temperature yesterday: 27 °F (at 2:00 AM)
Average temperature yesterday: 36 °F

Past Weeks' High & Low Weather Summary

 TemperatureHumidityPressure
High46 °F (Feb 20, 4:00 PM)100% (Feb 12, 5:00 PM)30.78 "Hg (Feb 12, 5:00 PM)
Low20 °F (Feb 15, 5:00 AM)51% (Feb 26, 5:00 PM)29.47 "Hg (Feb 21, 9:00 AM)
Average32 °F88%30.07 "Hg
* Reported Feb 12 5:00 PM — Feb 27 5:00 PM, Meiningen, Weather by CustomWeather, © 2015

Note: Actual official high and low records may vary slightly from our data, if they occured in-between our weather recording intervals... More about our weather records

Advertising

Meiningen weather history for previous 24 hours

 ConditionsComfort  
Time TempWeatherWind HumidityBarometerVisibility
5:00 PM
Fri, Feb 27
38 °FLight freezing rain. Partly sunny.5 mph84%29.97 "Hg9 mi
3:00 PM40 °FOvercast.3 mph61%29.92 "Hg12 mi
2:00 PM41 °FOvercast.1 mph63%29.90 "Hg11 mi
1:00 PM39 °FOvercast.1 mph63%29.90 "Hg10 mi
12:00 PM37 °FOvercast.1 mph67%29.90 "Hg9 mi
11:00 AM35 °FOvercast.1 mph71%29.90 "Hg9 mi
10:00 AM33 °FOvercast.1 mph75%29.90 "Hg9 mi
9:00 AM32 °FOvercast.2 mph80%29.89 "Hg7 mi
8:00 AM32 °FOvercast.2 mph80%29.88 "Hg7 mi
7:00 AM31 °FOvercast.3 mph83%29.88 "Hg6 mi
6:00 AM31 °FOvercast.3 mph83%29.88 "Hg7 mi
5:00 AM31 °FOvercast.2 mph82%29.89 "Hg7 mi
4:00 AM30 °FOvercast.2 mph83%29.91 "Hg8 mi
3:00 AM30 °FClear.2 mph82%29.93 "Hg10 mi
2:00 AM30 °FClear.2 mph80%29.96 "Hg11 mi
1:00 AM32 °FClear.3 mph73%29.97 "Hg14 mi
12:00 AM34 °FClear.5 mph66%29.98 "Hg18 mi
11:00 PM
Thu, Feb 26
35 °FClear.3 mph65%29.99 "Hg19 mi
9:00 PM38 °FClear.7 mph66%30.02 "Hg18 mi
8:00 PM39 °FClear.7 mph65%30.03 "Hg17 mi
7:00 PM40 °FClear.5 mph65%30.04 "Hg18 mi
6:00 PM41 °FPassing clouds.3 mph60%30.04 "Hg22 mi
Weather by CustomWeather, © 2015

See weather overviewHow to use our weather pages